Theta_e
326 328 334 337 339 341 343 345 347 348 348 348 349 349 350 352 352 342 347 344 342 347 351 343 348 352 351 353 356 358 358 356 351
325 326 331 336 339 341 342 342 345 348 349 350 349 349 350 349 346 345 342 341 344 345 347 347 352 354 351 355 357 357 357 355 355
326 326 328 335 339 339 342 344 346 348 349 349 350 349 349 348 344 344 345 347 348 349 350 352 354 353 350 349 355 356 356 353 355
326 327 328 334 338 341 344 345 347 348 350 350 349 349 349 349 345 346 348 348 349 351 352 354 353 354 355 355 353 350 354 355 356
327 332 330 334 338 341 346 347 348 350 351 350 351 352 351 350 351 351 350 350 350 353 353 354 355 354 353 353 353 353 352 352 351
329 335 336 335 339 344 348 349 352 350 350 351 350 350 348 346 348 351 352 352 353 353 353 354 355 356 354 353 351 353 353 348 347
327 336 341 340 340 344 349 353 354 353 353 354 352 350 349 349 351 351 351 352 352 353 354 355 358 356 354 355 354 354 351 350 345
327 335 341 342 343 346 350 352 354 354 355 355 353 351 350 350 352 352 352 353 356 355 355 358 359 358 356 354 355 354 353 349 345
325 331 339 344 346 348 349 351 353 354 354 354 353 351 350 352 352 354 355 357 355 354 356 358 357 356 355 353 349 331 335 349 352
324 328 335 343 346 348 350 352 354 353 354 355 352 351 351 352 354 355 357 357 354 353 355 354 353 351 350 349 346 329 334 340 353
327 325 331 342 346 349 352 353 354 355 354 354 352 352 351 354 355 356 357 356 354 353 352 351 348 346 346 345 342 325 330 336 350
343 341 330 337 345 350 353 353 354 353 352 352 352 351 351 354 356 356 355 354 353 351 349 347 346 345 342 341 339 321 325 333 344
343 342 332 333 341 346 350 353 353 352 351 351 350 351 353 355 356 356 355 355 353 350 349 347 344 341 340 331 338 319 320 329 338
337 343 343 342 341 343 346 350 351 350 352 350 354 354 354 355 356 355 354 353 351 347 345 344 342 340 338 337 334 331 316 320 339
335 334 339 344 343 343 344 347 349 348 347 351 354 349 351 351 349 346 343 342 340 340 339 336 336 335 334 334 333 320 316 317 320
335 338 337 338 340 341 343 344 347 344 346 349 348 347 344 348 350 343 344 339 340 339 342 335 335 334 331 331 330 330 314 315 316
333 336 338 338 336 335 332 333 337 339 344 342 342 339 336 346 347 341 345 343 342 340 337 337 336 334 333 331 330 330 327 322 323
329 331 334 339 337 339 341 341 341 336 332 334 329 330 332 340 338 337 337 341 339 340 341 337 334 331 331 329 328 330 319 317 323
332 332 333 333 333 335 337 339 340 342 339 336 335 335 334 336 340 340 339 338 331 308 310 313 312 314 326 330 320 312 305 303 305
327 332 331 332 334 332 333 333 337 338 341 338 338 335 337 339 332 339 338 335 330 327 319 305 305 306 309 312 315 306 302 300 300
Wind_Speed
8 6 9 13 14 13 13 14 15 15 15 15 15 15 16 14 15 8 11 10 7 10 10 8 10 11 9 11 11 9 8 7 8
11 7 9 12 12 13 12 12 14 14 14 13 13 14 12 13 10 11 10 10 8 7 10 9 10 10 9 9 9 8 8 8 9
9 3 5 9 11 13 11 12 12 12 12 13 12 11 11 11 10 10 9 8 11 11 10 10 9 9 7 6 9 8 8 8 10
8 5 3 8 9 10 11 11 11 11 11 11 11 11 11 12 12 12 10 11 11 10 9 9 8 9 9 8 7 7 9 9 11
4 5 4 7 9 11 11 11 11 11 11 10 10 10 11 11 10 10 11 11 10 8 9 8 8 8 9 8 7 7 9 8 6
5 3 5 8 10 11 11 11 11 10 10 10 9 10 9 7 10 11 11 10 9 9 8 7 8 8 8 8 7 6 7 5 4
6 4 5 8 10 11 11 11 12 12 11 11 11 11 11 10 10 10 9 9 9 9 8 8 7 8 8 8 7 6 5 7 5
7 7 8 9 11 11 12 12 12 11 11 12 11 11 11 10 10 9 9 9 8 8 9 7 8 7 7 7 7 7 8 6 10
13 11 11 11 11 12 13 13 12 11 11 11 12 11 10 9 8 9 9 9 9 10 8 7 7 7 7 7 4 3 7 7 8
13 13 9 12 12 13 13 14 14 13 11 10 11 11 10 10 10 9 8 8 9 8 8 8 7 7 7 7 5 5 6 7 5
13 12 11 8 10 12 14 14 14 12 11 11 10 11 11 11 11 10 9 9 9 8 8 8 8 7 6 6 4 1 4 6 6
10 11 10 8 10 12 12 14 13 14 13 12 11 11 11 11 12 11 11 11 11 9 9 7 7 7 8 6 4 1 1 4 4
12 10 5 5 8 8 11 13 14 15 14 15 15 13 11 10 9 10 11 12 11 10 10 9 7 6 6 4 4 1 2 5 5
12 12 11 6 0 5 7 9 11 11 11 13 10 12 12 11 10 9 8 6 7 9 9 8 8 8 7 7 7 6 4 5 6
10 11 12 9 7 7 6 6 9 9 7 5 9 11 11 13 15 11 9 11 8 8 9 10 11 8 8 6 6 5 7 6 8
7 7 6 6 6 8 10 11 10 9 7 9 7 9 10 13 13 11 12 15 16 11 12 9 10 11 9 9 4 5 6 5 5
5 7 6 3 2 3 3 3 5 9 8 12 11 6 8 4 12 13 11 6 8 9 8 7 7 8 9 6 8 7 6 6 6
5 4 4 4 6 6 4 2 6 9 10 8 3 4 5 11 14 11 8 6 5 9 10 10 9 7 7 8 8 8 10 9 9
7 6 5 4 5 4 4 5 7 6 6 2 6 18 6 13 9 5 3 6 5 8 7 11 13 14 12 8 7 13 14 11 8
6 7 5 4 4 3 3 4 6 7 4 1 4 5 9 6 5 3 5 6 5 6 2 8 2 10 15 12 13 16 18 15 12
Wind_Direction
282 239 212 205 202 201 198 194 190 190 190 193 195 201 206 207 206 187 203 182 179 205 214 213 224 227 229 237 242 241 242 228 211
269 244 208 204 197 198 191 188 189 192 189 187 189 199 198 196 186 188 185 181 189 203 220 229 234 229 219 226 232 226 228 232 222
275 262 202 197 189 190 189 188 185 189 190 184 185 192 195 194 187 189 187 186 203 209 209 226 236 224 212 210 221 217 225 222 229
300 322 204 192 185 179 181 181 180 181 185 178 177 182 185 181 185 192 193 201 205 209 222 224 221 230 228 210 212 217 231 230 223
286 311 226 185 171 166 166 170 172 175 177 179 179 176 181 191 190 189 194 200 206 212 218 217 226 215 212 217 209 226 229 225 202
306 297 162 170 164 169 171 169 169 171 176 175 170 172 173 185 196 192 201 197 197 197 210 217 206 206 202 194 192 209 219 198 132
268 260 204 173 174 178 176 176 176 174 174 171 167 170 171 184 191 190 193 190 191 195 197 191 191 194 191 193 195 210 210 177 146
245 226 215 193 189 182 181 181 180 176 174 168 168 173 176 182 188 184 184 187 197 188 183 190 188 182 185 196 209 217 200 206 174
259 233 216 207 193 188 188 183 186 180 173 174 170 173 179 173 184 188 191 187 187 181 180 177 173 171 173 176 181 137 222 207 198
284 269 244 213 199 196 191 190 186 183 178 174 176 174 179 179 184 192 194 183 176 180 177 168 168 164 163 165 162 174 187 205 184
312 298 261 219 203 202 197 192 190 181 174 173 187 187 187 189 186 187 178 175 177 173 168 172 171 169 174 172 171 189 203 194 190
326 305 275 235 201 211 197 193 187 178 178 174 186 196 198 200 191 182 178 180 176 173 169 173 179 180 177 186 187 147 279 234 230
7 6 332 257 213 210 202 194 186 183 181 178 194 193 193 196 205 201 189 183 178 179 177 175 178 182 187 146 191 173 232 237 244
4 15 17 29 356 214 212 186 183 199 191 205 186 173 176 184 186 188 188 184 178 173 171 164 171 185 190 189 189 182 202 215 230
8 11 15 25 91 95 89 149 167 163 168 155 157 155 165 171 166 158 158 172 189 184 171 174 158 179 193 196 184 195 193 219 241
9 9 16 34 64 93 106 115 128 116 133 138 156 171 161 177 176 171 181 178 171 198 205 193 175 173 187 178 188 194 194 209 220
2 359 13 39 35 171 154 149 163 147 144 138 154 152 110 184 203 192 186 205 182 180 187 191 184 194 197 173 171 198 201 199 198
293 308 348 24 56 35 51 227 223 215 201 194 60 87 90 234 236 204 170 207 195 197 197 192 184 196 197 189 188 193 204 191 196
327 307 277 329 39 45 16 340 335 313 277 289 247 83 215 217 237 260 211 189 181 50 0 184 194 169 183 205 185 169 179 186 191
48 64 75 56 39 54 68 43 19 342 303 106 91 157 160 200 228 259 244 225 213 226 91 46 355 200 187 184 178 179 182 179 167